This is the latest recevied weather packets stored in our database for station/object K5SVV. If no packets are shown the sender has not sent any weather packets the latest 10 day(s).
| Time | Temp. | Humidity | Pressure | Rain* | Wind** | Luminosity | Snow |
|---|---|---|---|---|---|---|---|
| 1777933089 | 25.56° C | 68% | 1006.9 hPa | 0 mm | - | 356 W/m² | - |
| 1777932785 | 25.56° C | 67% | 1006.9 hPa | 0 mm | - | 437 W/m² | - |
| 1777932482 | 25.56° C | 68% | 1007.3 hPa | 0 mm | - | 377 W/m² | - |
| 1777932178 | 25.56° C | 68% | 1007.6 hPa | 0 mm | - | 245 W/m² | - |
| 1777931876 | 26.11° C | 67% | 1007.4 hPa | 0 mm | - | 275 W/m² | - |
| 1777931572 | 26.67° C | 66% | 1007.3 hPa | 0 mm | - | 387 W/m² | - |
| 1777931268 | 26.11° C | 68% | 1007.3 hPa | 0 mm | - | 499 W/m² | - |
| 1777930965 | 25.56° C | 66% | 1007.4 hPa | 0 mm | - | 350 W/m² | - |
| 1777930662 | 25.56° C | 67% | 1007.3 hPa | 0 mm | - | 308 W/m² | - |
| 1777930358 | 26.11° C | 66% | 1007.4 hPa | 0 mm | - | 426 W/m² | - |
| 1777930055 | 26.11° C | 66% | 1007.5 hPa | 0 mm | - | 407 W/m² | - |
| 1777929751 | 26.11° C | 66% | 1007.8 hPa | 0 mm | - | 488 W/m² | - |
| 1777929449 | 25.56° C | 67% | 1007.9 hPa | 0 mm | - | 548 W/m² | - |
| 1777929145 | 25.56° C | 67% | 1007.9 hPa | 0 mm | - | 561 W/m² | - |
| 1777928843 | 25.56° C | 67% | 1008.1 hPa | 0 mm | - | 286 W/m² | - |
| 1777928540 | 26.11° C | 66% | 1008.1 hPa | 0 mm | - | 588 W/m² | - |
| 1777928237 | 26.11° C | 66% | 1008 hPa | 0 mm | - | 668 W/m² | - |
| 1777927935 | 26.67° C | 66% | 1008.2 hPa | 0 mm | - | 687 W/m² | - |
| 1777927632 | 26.11° C | 66% | 1008.2 hPa | 0 mm | - | 729 W/m² | - |
| 1777927331 | 26.11° C | 66% | 1008.4 hPa | 0 mm | - | 702 W/m² | - |
| 1777927030 | 26.11° C | 65% | 1008.3 hPa | 0 mm | - | 643 W/m² | - |
| 1777926726 | 25.56° C | 66% | 1008.6 hPa | 0 mm | - | 371 W/m² | - |
| 1777926421 | 26.11° C | 66% | 1008.7 hPa | 0 mm | - | 350 W/m² | - |
| 1777926118 | 26.11° C | 65% | 1008.7 hPa | 0 mm | - | 759 W/m² | - |
| 1777925815 | 26.11° C | 65% | 1008.8 hPa | 0 mm | - | 750 W/m² | - |
* Rain latest hour (hover to see other rain measurements)
** Current wind speed in m/s (hover to see current wind gust speed)